Cambridge, MD

8:01 PM EDT on August 22, 2017 (GMT -0400)
Cambridge-Dorchester

Weather History for KCGE - April, 2013

Change the Weather History Date:

Friday, April 19, 2013

  Actual Average (KESN) Record (KESN)
Temperature  
Mean Temperature 70 °F -  
Max Temperature 77 °F 73 °F 89 °F (1976)
Min Temperature 62 °F 51 °F 34 °F (1960)
Cooling Degree Days 4    
Growing Degree Days 20 (Base 50)    
Moisture  
Dew Point 61 °F    
Average Humidity 79    
Maximum Humidity 94    
Minimum Humidity 57    
Precipitation  
Precipitation 0.00 in - - ()
Sea Level Pressure  
Sea Level Pressure 29.85 in    
Wind  
Wind Speed 12 mph (South)    
Max Wind Speed 24 mph    
Max Gust Speed 32 mph    
Visibility 10 miles    
Events      
Averages and records for this station are not official NWS values.
T = Trace of Precipitation, MM = Missing Value Source: NWS Daily Summary

Daily Weather History Graph

Daily Weather History Graph

Search for Another Location

Airport or City:

Trip Planner

Search our weather history database for the weather conditions in past years. The results will help you decide how hot, cold, wet, or windy it might be!

Date:

Astronomy

Apr. 19, 2013 Rise Set
Actual Time 6:22 AM EDT 7:44 PM EDT
Civil Twilight 5:54 AM EDT 8:12 PM EDT
Nautical Twilight 5:21 AM EDT 8:45 PM EDT
Astronomical Twilight 4:46 AM EDT 9:20 PM EDT
Moon 1:31 PM EDT (4/19) 2:31 AM EDT (4/19)
Length of Visible Light 14h 18m
Length of Day
13h 22m
First Quarter, 61% of the Moon is Illuminated
Apr 19
First Quarter
Apr 25
Full
May 2
Last Quarter
May 9
New
May 18
First Quarter

Hourly Weather History & Observations

Time (EDT) Temp. Dew Point Humidity Pressure Visibility Wind Dir Wind Speed Gust Speed Precip Events Conditions
12:07 AM 62.6 °F 57.2 °F 82% 30.05 in 10.0 mi SSE 10.4 mph - N/A   Clear
12:27 AM 62.6 °F 57.2 °F 82% 30.05 in 10.0 mi SSE 13.8 mph 20.7 mph N/A   Clear
12:47 AM 62.6 °F 55.4 °F 77% 30.05 in 10.0 mi SSE 11.5 mph 17.3 mph N/A   Clear
1:07 AM 62.6 °F 57.2 °F 82% 30.04 in 10.0 mi South 10.4 mph 17.3 mph N/A   Clear
1:27 AM 62.6 °F 57.2 °F 82% 30.02 in 10.0 mi South 11.5 mph 19.6 mph N/A   Clear
1:47 AM 62.6 °F 57.2 °F 82% 30.01 in 10.0 mi SSE 10.4 mph 19.6 mph N/A   Clear
2:07 AM 62.6 °F 57.2 °F 82% 30.00 in 10.0 mi South 10.4 mph 19.6 mph N/A   Clear
2:27 AM 62.6 °F 57.2 °F 82% 30.00 in 10.0 mi South 10.4 mph 17.3 mph N/A   Clear
2:47 AM 62.6 °F 57.2 °F 82% 29.99 in 10.0 mi South 11.5 mph 17.3 mph N/A   Clear
3:07 AM 62.6 °F 57.2 °F 82% 29.99 in 10.0 mi South 9.2 mph 17.3 mph N/A   Clear
3:27 AM 62.6 °F 57.2 °F 82% 29.98 in 10.0 mi SSE 8.1 mph 17.3 mph N/A   Clear
3:47 AM 62.6 °F 57.2 °F 82% 29.97 in 10.0 mi SSE 10.4 mph 17.3 mph N/A   Clear
4:07 AM 62.6 °F 59.0 °F 88% 29.97 in 10.0 mi South 10.4 mph - N/A   Clear
4:27 AM 62.6 °F 59.0 °F 88% 29.96 in 10.0 mi South 9.2 mph - N/A   Clear
4:47 AM 62.6 °F 59.0 °F 88% 29.95 in 10.0 mi South 5.8 mph - N/A   Scattered Clouds
5:07 AM 62.6 °F 59.0 °F 88% 29.95 in 10.0 mi South 10.4 mph 18.4 mph N/A   Scattered Clouds
5:27 AM 62.6 °F 59.0 °F 88% 29.94 in 10.0 mi SSE 11.5 mph 16.1 mph N/A   Mostly Cloudy
5:47 AM 62.6 °F 59.0 °F 88% 29.95 in 10.0 mi South 10.4 mph - N/A   Mostly Cloudy
6:07 AM 62.6 °F 59.0 °F 88% 29.95 in 10.0 mi South 10.4 mph - N/A   Overcast
6:27 AM 62.6 °F 59.0 °F 88% 29.95 in 10.0 mi South 10.4 mph 17.3 mph N/A   Overcast
6:47 AM 62.6 °F 59.0 °F 88% 29.95 in 10.0 mi South 10.4 mph 20.7 mph N/A   Overcast
7:07 AM 62.6 °F 59.0 °F 88% 29.95 in 10.0 mi South 13.8 mph 19.6 mph N/A   Overcast
7:27 AM 64.4 °F 60.8 °F 88% 29.94 in 10.0 mi SSE 11.5 mph 18.4 mph N/A   Overcast
7:47 AM 64.4 °F 60.8 °F 88% 29.94 in 10.0 mi South 11.5 mph 16.1 mph N/A   Overcast
8:07 AM 66.2 °F 62.6 °F 88% 29.93 in 10.0 mi South 13.8 mph 19.6 mph N/A   Overcast
8:28 AM 68.0 °F 62.6 °F 83% 29.94 in 10.0 mi South 11.5 mph 20.7 mph N/A   Overcast
8:48 AM 68.0 °F 62.6 °F 83% 29.93 in 10.0 mi South 11.5 mph 19.6 mph N/A   Overcast
9:08 AM 69.8 °F 62.6 °F 78% 29.93 in 10.0 mi South 13.8 mph 20.7 mph N/A   Overcast
9:28 AM 68.0 °F 62.6 °F 83% 29.93 in 7.0 mi South 11.5 mph 20.7 mph N/A   Overcast
9:48 AM 68.0 °F 62.6 °F 83% 29.92 in 10.0 mi South 11.5 mph 16.1 mph N/A   Overcast
10:08 AM 68.0 °F 62.6 °F 83% 29.92 in 10.0 mi South 10.4 mph 16.1 mph N/A   Overcast
10:28 AM 69.8 °F 64.4 °F 83% 29.91 in 10.0 mi South 10.4 mph 17.3 mph N/A   Overcast
10:48 AM 69.8 °F 62.6 °F 78% 29.90 in 10.0 mi South 15.0 mph 23.0 mph N/A   Overcast
11:08 AM 71.6 °F 62.6 °F 73% 29.89 in 10.0 mi South 18.4 mph 25.3 mph N/A   Overcast
11:28 AM 73.4 °F 64.4 °F 73% 29.88 in 10.0 mi SSE 21.9 mph 29.9 mph N/A   Mostly Cloudy
11:48 AM 71.6 °F 62.6 °F 73% 29.87 in 10.0 mi South 18.4 mph 23.0 mph N/A   Overcast
12:08 PM 71.6 °F 62.6 °F 73% 29.87 in 10.0 mi South 10.4 mph 23.0 mph N/A   Overcast
12:28 PM 73.4 °F 64.4 °F 73% 29.86 in 10.0 mi SSE 13.8 mph 25.3 mph N/A   Mostly Cloudy
12:48 PM 73.4 °F 62.6 °F 69% 29.84 in 10.0 mi South 16.1 mph 26.5 mph N/A   Scattered Clouds
1:08 PM 73.4 °F 62.6 °F 69% 29.83 in 10.0 mi SSE 16.1 mph 25.3 mph N/A   Scattered Clouds
1:28 PM 73.4 °F 62.6 °F 69% 29.82 in 10.0 mi South 24.2 mph 29.9 mph N/A   Clear
2:08 PM 73.4 °F 62.6 °F 69% 29.80 in 10.0 mi SSE 16.1 mph 28.8 mph N/A   Clear
2:28 PM 75.2 °F 62.6 °F 65% 29.79 in 10.0 mi South 16.1 mph 25.3 mph N/A   Clear
2:48 PM 73.4 °F 62.6 °F 69% 29.78 in 10.0 mi South 17.3 mph 28.8 mph N/A   Clear
3:08 PM 73.4 °F 62.6 °F 69% 29.76 in 10.0 mi South 16.1 mph 25.3 mph N/A   Scattered Clouds
3:28 PM 73.4 °F 62.6 °F 69% 29.74 in 10.0 mi SSE 17.3 mph 27.6 mph N/A   Scattered Clouds
3:48 PM 77.0 °F 62.6 °F 61% 29.73 in 10.0 mi South 16.1 mph 25.3 mph N/A   Clear
4:08 PM 77.0 °F 60.8 °F 57% 29.72 in 10.0 mi South 15.0 mph 24.2 mph N/A   Clear
4:28 PM 77.0 °F 60.8 °F 57% 29.71 in 10.0 mi South 18.4 mph 29.9 mph N/A   Clear
4:49 PM 77.0 °F 62.6 °F 61% 29.70 in 10.0 mi SSE 19.6 mph 31.1 mph N/A   Clear
5:09 PM 73.4 °F 62.6 °F 69% 29.69 in 10.0 mi SSE 21.9 mph 32.2 mph N/A   Clear
5:29 PM 73.4 °F 64.4 °F 73% 29.70 in 10.0 mi South 18.4 mph 28.8 mph N/A   Clear
5:49 PM 73.4 °F 64.4 °F 73% 29.70 in 10.0 mi South 16.1 mph 26.5 mph N/A   Clear
6:09 PM 73.4 °F 64.4 °F 73% 29.70 in 10.0 mi South 16.1 mph 26.5 mph N/A   Clear
6:29 PM 73.4 °F 64.4 °F 73% 29.68 in 10.0 mi SSE 17.3 mph 27.6 mph N/A   Clear
6:49 PM 73.4 °F 64.4 °F 73% 29.67 in 10.0 mi South 21.9 mph 31.1 mph N/A   Clear
7:09 PM 73.4 °F 64.4 °F 73% 29.68 in 10.0 mi South 18.4 mph 28.8 mph N/A   Clear
7:29 PM 71.6 °F 62.6 °F 73% 29.68 in 10.0 mi South 20.7 mph 27.6 mph N/A   Clear
7:49 PM 71.6 °F 62.6 °F 73% 29.67 in 10.0 mi South 16.1 mph 26.5 mph N/A   Clear
8:09 PM 71.6 °F 62.6 °F 73% 29.69 in 10.0 mi South 19.6 mph 27.6 mph N/A   Clear
8:29 PM 69.8 °F 62.6 °F 78% 29.75 in 5.0 mi WSW 18.4 mph 29.9 mph N/A   Mostly Cloudy
8:49 PM 64.4 °F 60.8 °F 88% 29.76 in 3.0 mi WSW 10.4 mph 29.9 mph N/A   Overcast
9:09 PM 64.4 °F 60.8 °F 88% 29.75 in 4.0 mi SSW 10.4 mph 17.3 mph N/A   Overcast
9:29 PM 64.4 °F 60.8 °F 88% 29.75 in 10.0 mi South 8.1 mph - N/A   Overcast
9:49 PM 66.2 °F 62.6 °F 88% 29.75 in 7.0 mi SSW 6.9 mph - N/A   Overcast
10:09 PM 64.4 °F 62.6 °F 94% 29.75 in 10.0 mi South 5.8 mph 16.1 mph N/A   Overcast
10:29 PM 64.4 °F 62.6 °F 94% 29.74 in 7.0 mi South 8.1 mph - N/A   Overcast
10:49 PM 64.4 °F 62.6 °F 94% 29.74 in 7.0 mi South 8.1 mph - N/A   Overcast
11:09 PM 64.4 °F 62.6 °F 94% 29.75 in 10.0 mi South 9.2 mph - N/A   Mostly Cloudy
11:29 PM 64.4 °F 60.8 °F 88% 29.75 in 10.0 mi South 9.2 mph 16.1 mph N/A   Scattered Clouds
11:49 PM 64.4 °F 60.8 °F 88% 29.75 in 10.0 mi South 9.2 mph - N/A   Scattered Clouds